[[{"header":{"parameterUnit":"m.s-1","parameterCategory":1,"la1":30.2991,"la2":30.254,"lo1":-89.0895,"lo2":-89.0444,"dy":0.0017,"dx":0.0017,"nx":28,"ny":28,"refTime":"2025-05-16T09:00:00:Z","depth":0,"parameterNumber":2,"parameterNumberName":"U-component_of_WINDS"},"data":[0,0,0,0,0,0,0,0,0,0,0,0,0,0,0,0,0,0,0,0,0,0,0,0,0,0,0,0,0,0,0,0,0,0,0,0,0,0,0,0,0,0,0,0,0,0,0,0,0,0,0,0,0,0,0,0,0,0,2.3007,2.3008,0,2.313,2.3132,2.3133,2.3161,2.316,2.3159,2.3159,2.3285,2.3289,2.3293,0,0,0,0,0,0,0,0,0,0,0,0,0,2.2796,2.28,2.3007,2.3009,2.301,2.313,2.3132,2.3133,2.3161,2.316,2.3159,2.3158,2.3283,2.3288,2.3293,0,0,0,0,0,0,0,0,0,0,0,0,0,2.29,2.2801,2.3007,2.3038,2.3043,2.313,2.3132,2.3134,2.3161,2.316,2.3159,2.3158,2.3282,2.3288,2.3294,2.3358,0,0,2.3313,2.3316,0,0,0,0,0,0,0,0,2.2894,2.2908,2.3032,2.3036,2.3041,2.3129,2.3103,2.3209,2.3162,2.3116,2.3159,2.3157,2.3234,2.3244,2.327,2.3364,2.337,2.3314,2.3317,2.332,2.3322,0,0,0,0,0,0,0,2.2887,2.2903,2.3056,2.3034,2.3039,2.3046,2.306,2.3124,2.3181,2.312,2.3123,2.3137,2.3236,2.3264,2.3273,2.3371,2.3314,2.3319,2.3323,2.3325,2.3523,2.3524,0,0,0,0,0,0,2.2874,2.2896,2.3052,2.3059,2.2963,2.3051,2.3066,2.3102,2.318,2.3191,2.3138,2.3138,2.3254,2.3266,2.3278,2.3357,2.332,2.3326,2.333,2.3521,2.3523,2.3525,0,0,0,0,0,0,2.2869,2.2888,2.3047,2.2979,2.2999,2.3056,2.3096,2.3105,2.3133,2.3193,2.3204,2.3155,2.3253,2.3269,2.3338,2.3361,2.3329,2.3334,2.352,2.3522,2.3524,2.3516,0,0,0,0,0,0,2.2863,2.2886,2.2911,2.2979,2.3003,2.3105,2.3098,2.3108,2.3144,2.3145,2.3213,2.3223,2.3254,2.3328,2.3344,2.3369,2.3339,2.3518,2.3521,2.3523,2.3514,2.3517,2.352,0,0,0,0,0,2.2856,2.2904,2.2912,2.2931,2.3035,2.3106,2.312,2.3154,2.3145,2.3171,2.321,2.3221,2.3357,2.3335,2.3353,2.3381,2.3516,2.352,2.3523,2.3513,2.3517,2.352,0,0,0,0,0,0,2.2838,2.2914,2.2923,2.2995,2.3044,2.3111,2.3144,2.3157,2.321,2.3208,2.3249,2.3264,2.3329,2.3362,2.3337,2.3446,2.3436,2.3443,2.3422,2.3426,2.3429,2.342,2.3345,0,0,0,0,0,2.2842,2.2893,2.2957,2.3014,2.3038,2.3087,2.3119,2.3141,2.3193,2.3214,2.3257,2.3308,2.3361,2.3396,2.3449,2.3519,2.3534,2.3547,2.355,2.3553,2.3558,2.3596,2.3602,2.3536,2.3536,2.3536,0,0,2.2852,2.2899,2.2929,2.3012,2.3052,2.3103,2.3104,2.3159,2.3197,2.3222,2.3289,2.3323,2.3382,2.3451,2.3483,2.348,2.3579,2.3557,2.3558,2.3562,2.36,2.3606,2.3612,2.3538,2.3538,2.3537,0,0,2.2895,2.2937,2.2988,2.3029,2.3089,2.3121,2.3134,2.3199,2.3222,2.329,2.3309,2.3356,2.3448,2.3488,2.3521,2.3579,2.3591,2.3595,2.3611,2.3647,2.3652,2.3657,2.3676,2.3683,2.36,2.36,2.36,0,2.2899,2.2977,2.3013,2.3067,2.3102,2.3127,2.3179,2.3216,2.3291,2.3315,2.331,2.3425,2.3467,2.3545,2.3559,2.3585,2.36,2.3587,2.3649,2.3654,2.3659,2.3678,2.3685,2.36,2.36,2.36,2.36,0,2.2979,2.3033,2.3067,2.3138,2.3177,2.323,2.3273,2.3309,2.3327,2.336,2.3428,2.3478,2.3541,2.3562,2.3581,2.3643,2.3638,2.3641,2.3631,2.3665,2.3683,2.369,2.3601,2.3601,2.36,2.36,0,0,2.3013,2.3103,2.3115,2.3147,2.3216,2.3258,2.3312,2.3373,2.3402,2.3453,2.3498,2.3575,2.3578,2.3615,2.3639,2.3671,2.3711,2.3669,2.3671,2.3674,2.3781,2.3777,2.3785,2.372,2.3722,2.3723,2.3775,0,2.3064,2.316,2.3193,2.3272,2.3322,2.3346,2.3392,2.3439,2.3471,2.3517,2.3553,2.3606,2.3606,2.3628,2.3661,2.3699,2.3733,2.3696,2.3761,2.3763,2.3744,2.3795,2.3792,2.3838,2.3783,2.3784,2.3785,0,2.3135,2.3187,2.327,2.3332,2.3354,2.3395,2.3453,2.3498,2.3551,2.3572,2.3613,2.3634,2.369,2.3678,2.3755,2.3729,2.3758,2.3781,2.3784,2.379,2.3775,2.3801,2.3854,2.3861,2.3797,2.3796,2.3795,0,2.315,2.324,2.3302,2.3329,2.3402,2.343,2.3462,2.3515,2.3549,2.36,2.3622,2.368,2.371,2.3754,2.379,2.3778,2.3863,2.3855,2.3881,2.388,2.3897,2.3895,2.3954,2.3918,2.3918,2.3918,2.3918,0,2.3202,2.3252,2.3309,2.3347,2.3403,2.3441,2.3496,2.3529,2.3575,2.3619,2.3645,2.3685,2.3731,2.3778,2.3806,2.3865,2.3879,2.3897,2.3904,2.3894,2.3891,2.3912,2.3909,2.392,2.3919,2.3919,2.3919,0,2.3228,2.3268,2.3336,2.34,2.3418,2.3456,2.3511,2.3548,2.358,2.3636,2.3651,2.3702,2.3758,2.3799,2.3871,2.3891,2.3953,2.3961,2.3935,2.3938,2.3961,2.3958,2.4035,2.4046,2.4003,2.4004,2.4004,0,2.3257,2.3296,2.3364,2.3395,2.3427,2.3477,2.3512,2.3551,2.3586,2.365,2.3679,2.3737,2.3785,2.3873,2.3917,2.3972,2.398,2.4003,2.3989,2.3977,2.3979,2.3975,2.3979,2.4005,2.4005,2.4005,2.4006,0,2.3305,2.3323,2.3372,2.3428,2.3469,2.3515,2.3562,2.3586,2.3633,2.3672,2.3729,2.3766,2.384,2.3897,2.3956,2.3989,2.4005,2.401,2.4019,2.4008,2.3991,2.3999,2.3939,2.4008,2.4008,2.4007,2.4007,2.4007,2.3333,2.3368,2.342,2.3474,2.3513,2.3556,2.3593,2.3631,2.3679,2.3742,2.3762,2.3821,2.3873,2.3954,2.3988,2.4034,2.4034,2.4047,2.405,2.4052,2.405,2.3985,2.4046,2.4046,2.4046,2.4046,2.4046,0,2.338,2.3415,2.3465,2.3528,2.357,2.3582,2.3634,2.3668,2.372,2.3767,2.3813,2.3879,2.3934,2.3981,2.4038,2.4066,2.4075,2.408,2.4077,2.4084,2.4049,2.4035,2.4072,2.4072,2.4072,2.4072,2.4071,2.4071,2.341,2.3469,2.3493,2.3572,2.3607,2.3665,2.3693,2.3732,2.377,2.3841,2.3887,2.3918,2.3965,2.4025,2.4076,2.4088,2.4107,2.411,2.4124,2.409,2.4087,2.4084,2.4071,2.4114,2.4114,2.4155,2.4156,2.4156]},{"header":{"parameterUnit":"m.s-1","parameterCategory":1,"la1":30.2991,"la2":30.254,"lo1":-89.0895,"lo2":-89.0444,"dy":0.0017,"dx":0.0017,"nx":28,"ny":28,"refTime":"2025-05-16T09:00:00:Z","depth":0,"parameterNumber":3,"parameterNumberName":"V-component_of_WINDS"},"data":[0,0,0,0,0,0,0,0,0,0,0,0,0,0,0,0,0,0,0,0,0,0,0,0,0,0,0,0,0,0,0,0,0,0,0,0,0,0,0,0,0,0,0,0,0,0,0,0,0,0,0,0,0,0,0,0,0,0,2.6604,2.6605,0,2.6658,2.6658,2.6659,2.665,2.6649,2.6649,2.6648,2.6699,2.6701,2.6704,0,0,0,0,0,0,0,0,0,0,0,0,0,2.6492,2.6494,2.6604,2.6605,2.6606,2.6658,2.6658,2.6659,2.6651,2.6649,2.6648,2.6647,2.6699,2.6701,2.6704,0,0,0,0,0,0,0,0,0,0,0,0,0,2.6543,2.6495,2.6604,2.6608,2.6609,2.6657,2.6658,2.6659,2.6651,2.6649,2.6648,2.6647,2.6698,2.6701,2.6704,2.6752,0,0,2.6714,2.6716,0,0,0,0,0,0,0,0,2.654,2.6547,2.6607,2.6608,2.6609,2.6646,2.6638,2.669,2.6651,2.6635,2.6648,2.6646,2.6682,2.6687,2.67,2.6754,2.6757,2.6715,2.6717,2.6718,2.6719,0,0,0,0,0,0,0,2.6536,2.6545,2.6625,2.6607,2.6609,2.6606,2.6611,2.6648,2.6665,2.6636,2.6636,2.6642,2.6683,2.6697,2.6701,2.6757,2.6715,2.6718,2.672,2.6721,2.6854,2.6855,0,0,0,0,0,0,2.6532,2.6542,2.6624,2.6627,2.657,2.6609,2.6615,2.6635,2.6665,2.6668,2.6643,2.6642,2.6692,2.6697,2.6703,2.6761,2.6718,2.6721,2.6723,2.6852,2.6854,2.6856,0,0,0,0,0,0,2.653,2.654,2.6621,2.6584,2.6594,2.6612,2.6635,2.6637,2.6651,2.6671,2.6673,2.6654,2.6691,2.6698,2.674,2.6763,2.6723,2.6726,2.685,2.6853,2.6855,2.6878,0,0,0,0,0,0,2.6527,2.6539,2.6558,2.6585,2.6596,2.6659,2.6636,2.6639,2.6657,2.6656,2.6682,2.6685,2.669,2.6735,2.6743,2.6767,2.6728,2.6848,2.6851,2.6854,2.6875,2.688,2.6885,0,0,0,0,0,2.6523,2.6561,2.6559,2.6569,2.6621,2.666,2.6667,2.6673,2.6659,2.6678,2.669,2.6684,2.6759,2.674,2.6749,2.6773,2.6847,2.6851,2.6854,2.6873,2.6879,2.6885,0,0,0,0,0,0,2.6536,2.6565,2.6563,2.6611,2.6633,2.6659,2.6683,2.668,2.6706,2.6703,2.6709,2.6715,2.6758,2.6769,2.6747,2.6821,2.6801,2.6806,2.6812,2.6818,2.6823,2.682,2.6731,0,0,0,0,0,2.6544,2.6575,2.6598,2.6639,2.665,2.6665,2.6682,2.6685,2.6708,2.6717,2.6732,2.6754,2.6782,2.6801,2.6828,2.6876,2.6882,2.6898,2.6903,2.6907,2.6912,2.6938,2.6946,2.6867,2.6867,2.6867,0,0,2.6562,2.6582,2.6601,2.6642,2.666,2.669,2.6673,2.6706,2.6728,2.6722,2.6763,2.6775,2.6799,2.6845,2.6865,2.6856,2.6935,2.6911,2.6914,2.6917,2.6943,2.695,2.6957,2.6869,2.6869,2.6869,0,0,2.6611,2.6629,2.6665,2.6683,2.671,2.672,2.6728,2.6754,2.6762,2.6804,2.68,2.6826,2.6875,2.6892,2.6908,2.6963,2.6958,2.6972,2.6998,2.7024,2.7031,2.7036,2.7056,2.7064,2.6976,2.6976,2.6976,0,2.6629,2.6677,2.6684,2.6718,2.6736,2.6732,2.6769,2.6785,2.682,2.6832,2.6821,2.6882,2.6898,2.6948,2.6962,2.6974,2.6984,2.6969,2.7029,2.7035,2.704,2.706,2.7067,2.6978,2.6978,2.6977,2.6977,0,2.6698,2.6731,2.6757,2.6792,2.6812,2.6847,2.6859,2.6879,2.688,2.689,2.6932,2.6952,2.6983,2.6995,2.6996,2.7045,2.7038,2.7028,2.7008,2.7049,2.7067,2.7075,2.698,2.6979,2.6979,2.6979,0,0,2.6757,2.6795,2.6805,2.6821,2.685,2.6875,2.691,2.6941,2.6959,2.6982,2.7011,2.7052,2.7044,2.7061,2.7064,2.7087,2.713,2.7074,2.7075,2.7084,2.7185,2.7193,2.7202,2.7127,2.7128,2.7129,2.7184,0,2.6809,2.6871,2.6879,2.6934,2.6964,2.6961,2.6991,2.7012,2.7022,2.7049,2.7059,2.7089,2.7075,2.7085,2.7108,2.712,2.715,2.7116,2.7153,2.7154,2.7148,2.7211,2.722,2.727,2.7191,2.7192,2.7193,0,2.6878,2.6905,2.6964,2.699,2.7003,2.703,2.7059,2.7085,2.7108,2.7114,2.7134,2.7134,2.7169,2.7147,2.7195,2.7171,2.7187,2.7195,2.7197,2.7201,2.7177,2.7218,2.7287,2.7295,2.7204,2.7203,2.7202,0,2.6915,2.6966,2.7008,2.7021,2.7053,2.7072,2.7086,2.7108,2.7127,2.7152,2.7164,2.7193,2.7209,2.723,2.7238,2.7221,2.7285,2.7264,2.7291,2.7291,2.7305,2.7304,2.7378,2.7314,2.7314,2.7314,2.7314,0,2.6973,2.7009,2.7025,2.7051,2.7091,2.7099,2.7138,2.7151,2.7171,2.7198,2.7196,2.7222,2.723,2.7257,2.7263,2.7302,2.7308,2.7314,2.7315,2.7315,2.7314,2.7325,2.7322,2.7316,2.7315,2.7315,2.7315,0,2.7022,2.7034,2.708,2.7106,2.7114,2.7142,2.7164,2.7189,2.7198,2.7233,2.7242,2.7257,2.7289,2.7298,2.7336,2.734,2.7386,2.7383,2.7378,2.7379,2.7405,2.7403,2.7489,2.7501,2.7429,2.7429,2.743,0,2.7058,2.7086,2.7116,2.7135,2.715,2.718,2.72,2.7208,2.7228,2.7257,2.7278,2.7309,2.7335,2.7385,2.7399,2.7428,2.7427,2.7455,2.7431,2.743,2.7428,2.7427,2.743,2.746,2.746,2.7461,2.7462,0,2.7122,2.7127,2.7155,2.7187,2.721,2.7234,2.7258,2.7273,2.7284,2.7307,2.734,2.736,2.7399,2.743,2.7459,2.7472,2.7469,2.7469,2.7477,2.7477,2.7473,2.7476,2.7391,2.7467,2.7467,2.7466,2.7466,2.7466,2.7166,2.7191,2.7216,2.7248,2.7267,2.7289,2.7314,2.7327,2.7355,2.7389,2.7391,2.7427,2.7449,2.7488,2.7503,2.753,2.7522,2.7533,2.7536,2.7539,2.7542,2.7468,2.7535,2.7535,2.7535,2.7535,2.7535,0,2.723,2.7246,2.7276,2.7309,2.7334,2.733,2.7356,2.7377,2.7409,2.743,2.7456,2.7494,2.7524,2.7541,2.7571,2.759,2.7589,2.7597,2.7596,2.7599,2.7547,2.7538,2.7598,2.7597,2.7597,2.7597,2.7597,2.7597,2.7266,2.7309,2.7316,2.7368,2.7383,2.7419,2.7435,2.7455,2.7472,2.7515,2.7541,2.7552,2.7571,2.7603,2.763,2.7634,2.7646,2.7655,2.7658,2.7609,2.7603,2.7597,2.7588,2.7658,2.7658,2.7709,2.7709,2.7709]}]]